TimeEST,TemperatureF,Dew PointF,Humidity,Sea Level PressureIn,VisibilityMPH,Wind Direction,Wind SpeedMPH,Gust SpeedMPH,PrecipitationIn,Events,Conditions,WindDirDegrees,DateUTC
12:53 AM,70.0,66.0,87,30.01,10.0,SW,4.6,-,N/A,,Clear,230,2012-12-21 05:53:00
1:53 AM,69.1,66.0,90,30.00,10.0,SSW,4.6,-,N/A,,Clear,210,2012-12-21 06:53:00
2:53 AM,70.0,66.0,87,29.99,10.0,SW,4.6,-,N/A,,Clear,230,2012-12-21 07:53:00
3:53 AM,69.1,66.0,90,29.97,10.0,SW,5.8,-,N/A,,Clear,220,2012-12-21 08:53:00
4:53 AM,69.1,66.0,90,29.96,10.0,SW,5.8,-,N/A,,Clear,220,2012-12-21 09:53:00
5:53 AM,70.0,66.9,90,29.97,10.0,SW,5.8,-,N/A,,Mostly Cloudy,230,2012-12-21 10:53:00
6:53 AM,72.0,69.1,91,29.99,8.0,West,15.0,21.9,0.00,Rain,Light Rain,270,2012-12-21 11:53:00
7:00 AM,71.6,68.0,88,30.00,8.0,WNW,15.0,25.3,0.00,Rain,Light Rain,300,2012-12-21 12:00:00
7:12 AM,71.6,66.2,83,30.01,8.0,WNW,18.4,31.1,0.00,,Overcast,300,2012-12-21 12:12:00
7:33 AM,66.2,60.8,83,30.02,8.0,NW,18.4,25.3,0.00,,Overcast,320,2012-12-21 12:33:00
7:53 AM,66.9,59.0,76,30.04,8.0,NW,17.3,27.6,0.00,,Overcast,310,2012-12-21 12:53:00
8:12 AM,66.2,59.0,78,30.05,10.0,NW,17.3,26.5,N/A,,Mostly Cloudy,320,2012-12-21 13:12:00
8:53 AM,64.9,53.1,65,30.07,10.0,NW,17.3,28.8,N/A,,Scattered Clouds,320,2012-12-21 13:53:00
9:53 AM,64.9,51.1,61,30.10,10.0,NW,19.6,29.9,N/A,,Partly Cloudy,310,2012-12-21 14:53:00
10:53 AM,66.0,48.0,52,30.10,10.0,NNW,21.9,26.5,N/A,,Partly Cloudy,340,2012-12-21 15:53:00
11:53 AM,64.9,45.0,48,30.09,10.0,NNW,19.6,27.6,N/A,,Partly Cloudy,340,2012-12-21 16:53:00
12:53 PM,66.0,42.1,42,30.06,10.0,NNW,17.3,26.5,N/A,,Clear,330,2012-12-21 17:53:00
1:53 PM,66.9,37.0,33,30.05,10.0,NW,17.3,25.3,N/A,,Clear,320,2012-12-21 18:53:00
2:53 PM,66.9,37.0,33,30.04,10.0,NW,19.6,25.3,N/A,,Clear,320,2012-12-21 19:53:00
3:53 PM,66.0,34.0,30,30.06,10.0,NNW,19.6,27.6,N/A,,Clear,330,2012-12-21 20:53:00
4:53 PM,64.9,37.0,36,30.07,10.0,NNW,15.0,25.3,N/A,,Clear,330,2012-12-21 21:53:00
5:53 PM,63.0,35.1,35,30.08,10.0,NW,13.8,21.9,N/A,,Clear,320,2012-12-21 22:53:00
6:53 PM,61.0,37.0,41,30.09,10.0,NW,9.2,-,N/A,,Clear,310,2012-12-21 23:53:00
7:53 PM,60.1,35.1,39,30.11,10.0,NW,10.4,-,N/A,,Clear,310,2012-12-22 00:53:00
8:53 PM,57.9,35.1,42,30.14,10.0,NW,15.0,21.9,N/A,,Clear,320,2012-12-22 01:53:00
9:53 PM,55.9,37.0,49,30.16,10.0,NW,10.4,20.7,N/A,,Clear,310,2012-12-22 02:53:00
10:53 PM,54.0,39.9,59,30.17,10.0,NW,10.4,-,N/A,,Clear,310,2012-12-22 03:53:00
11:53 PM,52.0,41.0,66,30.17,10.0,NW,10.4,-,N/A,,Clear,310,2012-12-22 04:53:00